Tracking 21992 objects as of 28-Nov-2020
HD Live streaming from Space Station
objects crossing your sky now

COSMOS 451

Track COSMOS 451 now!
10-day predictions
COSMOS 451 is classified as:


NORAD ID: 5554
Int'l Code: 1971-086H
Perigee: 1,495.7 km
Apogee: 1,580.5 km
Inclination: 74.0 °
Period: 116.7 minutes
Semi major axis: 7909 km
RCS: 0.7471 m2 (medium)
Launch date: October 13, 1971
Source: Commonwealth of Independent States (former USSR) (CIS)
Launch site: PLESETSK MISSILE AND SPACE COMPLEX (PKMTR)
aabbcc
Your satellite tracking list
Your tracking list is empty




NASA's NSSDC Master Catalog

Two Line Element Set (TLE):
1  5554U 71086H   20333.57226995 -.00000015 +00000-0 +32457-8 0  9993
2  5554 074.0260 125.0830 0053596 320.3749 104.7051 12.34276527213626
Source of the keplerian elements: AFSPC